Colby, KS

7:05 PM CDT on May 24, 2018 (GMT -0500)
Shaltz

Weather History for KCBK - December, 2012

Change the Weather History Date:

Thursday, December 6, 2012

  Actual Average (WUND) Record (WUND)
Temperature  
Mean Temperature 40 °F -  
Max Temperature 48 °F - - (-1)
Min Temperature 32 °F - - (-1)
Degree Days  
Heating Degree Days 25    
Moisture  
Dew Point 25 °F    
Average Humidity 54    
Maximum Humidity 75    
Minimum Humidity 34    
Precipitation  
Precipitation 0.00 in - - ()
Sea Level Pressure  
Sea Level Pressure 29.93 in    
Wind  
Wind Speed 11 mph (North)    
Max Wind Speed 26 mph    
Max Gust Speed 33 mph    
Visibility 10 miles    
Events      
Averages and records for this station are not official NWS values.
T = Trace of Precipitation, MM = Missing Value Source: NWS Daily Summary

Daily Weather History Graph

Daily Weather History Graph

Search for Another Location

Airport or City:

Astronomy

Dec. 06, 2012 Rise Set
Actual Time 7:50 AM CST 5:20 PM CST
Civil Twilight 7:20 AM CST 5:50 PM CST
Nautical Twilight 6:46 AM CST 6:23 PM CST
Astronomical Twilight 6:14 AM CST 6:56 PM CST
Moon 12:10 AM CST (12/6) 12:45 PM CST (12/6)
Length of Visible Light 10h 29m
Length of Day
9h 29m
Waning Gibbous, 49% of the Moon is Illuminated
Dec 6
Waning Gibbous
Dec 13
New
Dec 19
First Quarter
Dec 28
Full
Jan 4
Last Quarter

Hourly Weather History & Observations

Time (CST) Temp. Windchill Dew Point Humidity Pressure Visibility Wind Dir Wind Speed Gust Speed Precip Events Conditions
12:15 AM 42.8 °F - 30.2 °F 61% 29.82 in 10.0 mi Calm Calm - N/A   Clear
12:35 AM 42.8 °F 37.0 °F 30.2 °F 61% 29.84 in 10.0 mi NW 10.4 mph - N/A   Clear
12:55 AM 42.8 °F 38.0 °F 30.2 °F 61% 29.84 in 10.0 mi NW 8.1 mph - N/A   Clear
1:15 AM 41.0 °F 38.0 °F 30.2 °F 65% 29.82 in 10.0 mi WNW 4.6 mph - N/A   Clear
1:35 AM 41.0 °F 37.1 °F 30.2 °F 65% 29.82 in 10.0 mi WNW 5.8 mph - N/A   Clear
1:55 AM 37.4 °F 33.8 °F 28.4 °F 70% 29.81 in 10.0 mi West 4.6 mph - N/A   Clear
2:15 AM 37.4 °F 32.8 °F 30.2 °F 75% 29.81 in 10.0 mi West 5.8 mph - N/A   Clear
2:35 AM 37.4 °F 31.4 °F 28.4 °F 70% 29.82 in 10.0 mi NW 8.1 mph - N/A   Clear
2:55 AM 37.4 °F - 30.2 °F 75% 29.83 in 10.0 mi Calm Calm - N/A   Clear
3:15 AM 37.4 °F 30.3 °F 30.2 °F 75% 29.82 in 10.0 mi NNW 10.4 mph - N/A   Clear
3:35 AM 42.8 °F 36.2 °F 30.2 °F 61% 29.83 in 10.0 mi NW 12.7 mph - N/A   Clear
3:55 AM 41.0 °F 34.3 °F 30.2 °F 65% 29.84 in 10.0 mi NW 11.5 mph - N/A   Clear
4:15 AM 42.8 °F 35.4 °F 32.0 °F 66% 29.84 in 10.0 mi NW 15.0 mph - N/A   Clear
4:35 AM 42.8 °F 35.8 °F 32.0 °F 66% 29.84 in 10.0 mi NNW 13.8 mph - N/A   Clear
4:55 AM 46.4 °F 40.1 °F 32.0 °F 57% 29.84 in 10.0 mi NNW 15.0 mph - N/A   Clear
5:15 AM 46.4 °F 40.4 °F 32.0 °F 57% 29.84 in 10.0 mi NNW 13.8 mph - N/A   Clear
5:35 AM 46.4 °F 40.7 °F 33.8 °F 62% 29.85 in 10.0 mi NNW 12.7 mph - N/A   Clear
5:55 AM 46.4 °F 41.5 °F 33.8 °F 62% 29.85 in 10.0 mi NNW 10.4 mph - N/A   Clear
6:15 AM 46.4 °F 41.1 °F 33.8 °F 62% 29.86 in 10.0 mi NNW 11.5 mph - N/A   Clear
6:35 AM 48.2 °F - 33.8 °F 58% 29.86 in 10.0 mi NNW 12.7 mph - N/A   Clear
6:55 AM 48.2 °F - 35.6 °F 62% 29.87 in 10.0 mi NNW 15.0 mph - N/A   Clear
7:35 AM 46.4 °F 39.0 °F 35.6 °F 66% 29.89 in 10.0 mi North 19.6 mph - N/A   Clear
7:55 AM 46.4 °F 39.2 °F 33.8 °F 62% 29.91 in 10.0 mi North 18.4 mph - N/A   Clear
8:15 AM 46.4 °F 39.8 °F 33.8 °F 62% 29.92 in 10.0 mi North 16.1 mph - N/A   Mostly Cloudy
8:35 AM 46.4 °F 39.0 °F 35.6 °F 66% 29.93 in 10.0 mi North 19.6 mph - N/A   Overcast
8:55 AM 46.4 °F 38.3 °F 35.6 °F 66% 29.95 in 10.0 mi North 23.0 mph 29.9 mph N/A   Overcast
9:15 AM 46.4 °F 37.7 °F 32.0 °F 57% 29.97 in 10.0 mi NNE 26.5 mph 31.1 mph N/A   Overcast
9:35 AM 44.6 °F 35.9 °F 30.2 °F 57% 29.98 in 10.0 mi NNE 23.0 mph 29.9 mph N/A   Overcast
9:55 AM 44.6 °F 35.5 °F 24.8 °F 46% 29.98 in 10.0 mi NNE 25.3 mph 33.4 mph N/A   Overcast
10:15 AM 44.6 °F 36.1 °F 23.0 °F 43% 30.01 in 10.0 mi NNE 21.9 mph 33.4 mph N/A   Overcast
10:35 AM 44.6 °F 37.4 °F 24.8 °F 46% 30.01 in 10.0 mi North 16.1 mph 21.9 mph N/A   Overcast
10:55 AM 44.6 °F 36.6 °F 24.8 °F 46% 30.01 in 10.0 mi NNE 19.6 mph - N/A   Overcast
11:15 AM 44.6 °F 36.1 °F 24.8 °F 46% 30.01 in 10.0 mi NNE 21.9 mph 29.9 mph N/A   Overcast
11:35 AM 44.6 °F 36.6 °F 24.8 °F 46% 30.01 in 10.0 mi North 19.6 mph 25.3 mph N/A   Overcast
11:55 AM 44.6 °F 36.9 °F 24.8 °F 46% 30.00 in 10.0 mi North 18.4 mph 25.3 mph N/A   Scattered Clouds
12:15 PM 46.4 °F 39.0 °F 23.0 °F 40% 29.98 in 10.0 mi North 19.6 mph 25.3 mph N/A   Clear
12:35 PM 46.4 °F 38.7 °F 21.2 °F 37% 29.98 in 10.0 mi North 20.7 mph - N/A   Scattered Clouds
12:55 PM 44.6 °F 36.1 °F 21.2 °F 39% 29.97 in 10.0 mi North 21.9 mph 27.6 mph N/A   Mostly Cloudy
1:15 PM 44.6 °F 37.2 °F 21.2 °F 39% 29.97 in 10.0 mi North 17.3 mph 25.3 mph N/A   Scattered Clouds
1:35 PM 44.6 °F 38.1 °F 21.2 °F 39% 29.97 in 10.0 mi North 13.8 mph 19.6 mph N/A   Mostly Cloudy
1:55 PM 44.6 °F 37.4 °F 21.2 °F 39% 29.97 in 10.0 mi North 16.1 mph 21.9 mph N/A   Overcast
2:15 PM 44.6 °F 36.9 °F 21.2 °F 39% 29.96 in 10.0 mi North 18.4 mph 21.9 mph N/A   Mostly Cloudy
2:35 PM 44.6 °F 37.2 °F 19.4 °F 37% 29.96 in 10.0 mi North 17.3 mph 20.7 mph N/A   Scattered Clouds
2:55 PM 44.6 °F 37.8 °F 21.2 °F 39% 29.95 in 10.0 mi North 15.0 mph 21.9 mph N/A   Clear
3:15 PM 44.6 °F 37.2 °F 21.2 °F 39% 29.95 in 10.0 mi North 17.3 mph - N/A   Scattered Clouds
3:35 PM 44.6 °F 37.8 °F 21.2 °F 39% 29.96 in 10.0 mi North 15.0 mph - N/A   Scattered Clouds
3:55 PM 44.6 °F 38.1 °F 19.4 °F 37% 29.96 in 10.0 mi North 13.8 mph - N/A   Clear
4:15 PM 46.4 °F 40.4 °F 19.4 °F 34% 29.96 in 10.0 mi North 13.8 mph - N/A   Clear
4:35 PM 44.6 °F 38.1 °F 17.6 °F 34% 29.97 in 10.0 mi NNE 13.8 mph - N/A   Clear
4:55 PM 42.8 °F 37.5 °F 17.6 °F 36% 29.97 in 10.0 mi NNE 9.2 mph - N/A   Clear
5:15 PM 41.0 °F 37.1 °F 15.8 °F 36% 29.97 in 10.0 mi NNE 5.8 mph - N/A   Clear
5:35 PM 37.4 °F 32.1 °F 15.8 °F 41% 29.97 in 10.0 mi NNE 6.9 mph - N/A   Clear
6:15 PM 35.6 °F 29.2 °F 15.8 °F 44% 29.97 in 10.0 mi NNE 8.1 mph - N/A   Scattered Clouds
6:35 PM 35.6 °F 29.9 °F 15.8 °F 44% 29.97 in 10.0 mi NNE 6.9 mph - N/A   Overcast
6:55 PM 33.8 °F 27.0 °F 17.6 °F 52% 29.98 in 10.0 mi North 8.1 mph - N/A   Scattered Clouds
7:15 PM 33.8 °F 26.4 °F 17.6 °F 52% 29.98 in 10.0 mi NNE 9.2 mph - N/A   Clear
7:55 PM 33.8 °F 27.7 °F 19.4 °F 56% 29.98 in 10.0 mi NE 6.9 mph - N/A   Clear
8:35 PM 32.0 °F 25.6 °F 17.6 °F 55% 29.99 in 10.0 mi NE 6.9 mph - N/A   Clear
8:55 PM 32.0 °F 25.6 °F 19.4 °F 60% 29.99 in 10.0 mi NE 6.9 mph - N/A   Scattered Clouds
9:15 PM 32.0 °F 24.8 °F 19.4 °F 60% 29.98 in 10.0 mi NE 8.1 mph - N/A   Scattered Clouds
9:35 PM 32.0 °F 24.8 °F 19.4 °F 60% 29.98 in 10.0 mi NE 8.1 mph - N/A   Scattered Clouds
9:55 PM 32.0 °F 26.4 °F 19.4 °F 60% 29.99 in 10.0 mi NE 5.8 mph - N/A   Mostly Cloudy
10:15 PM 32.0 °F 26.4 °F 19.4 °F 60% 29.99 in 10.0 mi NNE 5.8 mph - N/A   Overcast
10:35 PM 33.8 °F 27.7 °F 19.4 °F 56% 29.99 in 10.0 mi NE 6.9 mph - N/A   Overcast
10:55 PM 33.8 °F 30.8 °F 19.4 °F 56% 29.99 in 10.0 mi NE 3.5 mph - N/A   Overcast
11:15 PM 33.8 °F 30.8 °F 19.4 °F 56% 29.98 in 10.0 mi ENE 3.5 mph - N/A   Overcast
11:35 PM 32.0 °F - 19.4 °F 60% 29.98 in 10.0 mi Calm Calm - N/A   Overcast
11:55 PM 32.0 °F - 19.4 °F 60% 29.98 in 10.0 mi Calm Calm - N/A   Scattered Clouds